• In United Kingdom
  • List of Countries
  • For 7 days
  • Water Temperature
  • Satellite Maps
  • Weather Map
  • Weather Widgets
  • user-avatar
    Login

    Hourly Weather Mingachevir

    Today, 21 August, Monday

    Time Temperature Precipitation Wind Pressure Humidity
    00:00 +27°C° 0 mm 2 mps 752 mmHg 38%
    01:00 +27°C° 0 mm 2 mps 752 mmHg 38%
    02:00 +27°C° 0 mm 1 mps 752 mmHg 38%
    03:00 +26°C° 0 mm 1 mps 752 mmHg 38%
    04:00 +26°C° 0 mm 1 mps 752 mmHg 38%
    05:00 +26°C° 0 mm 2 mps 752 mmHg 37%
    06:00 +27°C° 0 mm 2 mps 752 mmHg 37%
    07:00 +29°C° 0 mm 2 mps 751 mmHg 33%
    08:00 +31°C° 0 mm 2 mps 751 mmHg 28%
    09:00 +34°C° 0 mm 2 mps 751 mmHg 24%
    10:00 +35°C° 0 mm 2 mps 751 mmHg 22%
    11:00 +36°C° 0 mm 2 mps 750 mmHg 21%
    12:00 +37°C° 0 mm 2 mps 750 mmHg 19%
    13:00 +38°C° 0 mm 3 mps 749 mmHg 18%
    14:00 +39°C° 0 mm 3 mps 749 mmHg 18%
    15:00 +41°C° 0 mm 4 mps 748 mmHg 17%
    16:00 +39°C° 0 mm 3 mps 748 mmHg 19%
    17:00 +38°C° 0 mm 3 mps 748 mmHg 21%
    18:00 +37°C° 0 mm 3 mps 748 mmHg 23%
    19:00 +35°C° 0 mm 3 mps 749 mmHg 25%
    20:00 +34°C° 0 mm 4 mps 749 mmHg 28%
    21:00 +32°C° 0 mm 4 mps 750 mmHg 30%
    22:00 +30°C° 0 mm 3 mps 750 mmHg 32%
    23:00 +29°C° 0 mm 3 mps 750 mmHg 35%

    Tomorrow, 22 August, Tuesday

    Time Temperature Precipitation Wind Pressure Humidity
    00:00 +28°C° 0 mm 2 mps 750 mmHg 37%
    01:00 +27°C° 0 mm 2 mps 749 mmHg 38%
    02:00 +27°C° 0 mm 1 mps 749 mmHg 39%
    03:00 +26°C° 0 mm 1 mps 749 mmHg 40%
    04:00 +26°C° 0 mm 1 mps 749 mmHg 40%
    05:00 +27°C° 0 mm 1 mps 749 mmHg 39%
    06:00 +27°C° 0 mm 1 mps 749 mmHg 39%
    07:00 +29°C° 0 mm 1 mps 749 mmHg 34%
    08:00 +31°C° 0 mm 1 mps 749 mmHg 28%
    09:00 +33°C° 0 mm 1 mps 749 mmHg 23%
    10:00 +36°C° 0 mm 2 mps 749 mmHg 21%
    11:00 +37°C° 0 mm 3 mps 748 mmHg 19%
    12:00 +38°C° 0 mm 3 mps 748 mmHg 17%
    13:00 +39°C° 0 mm 3 mps 747 mmHg 17%
    14:00 +41°C° 0 mm 4 mps 747 mmHg 17%
    15:00 +41°C° 0 mm 4 mps 747 mmHg 16%
    16:00 +41°C° 0 mm 4 mps 747 mmHg 18%
    17:00 +40°C° 0 mm 4 mps 747 mmHg 20%
    18:00 +38°C° 0 mm 4 mps 747 mmHg 22%
    19:00 +36°C° 0 mm 4 mps 747 mmHg 24%
    20:00 +34°C° 0 mm 4 mps 748 mmHg 27%
    21:00 +32°C° 0 mm 4 mps 748 mmHg 29%
    22:00 +30°C° 0 mm 3 mps 748 mmHg 32%
    23:00 +29°C° 0 mm 3 mps 748 mmHg 35%

    Day after tomorrow, 23 August, Wednesday

    Time Temperature Precipitation Wind Pressure Humidity
    00:00 +28°C° 0 mm 2 mps 748 mmHg 37%
    01:00 +27°C° 0 mm 2 mps 749 mmHg 38%
    02:00 +27°C° 0 mm 1 mps 749 mmHg 39%
    03:00 +26°C° 0 mm 1 mps 749 mmHg 40%
    04:00 +26°C° 0 mm 1 mps 749 mmHg 40%
    05:00 +27°C° 0 mm 1 mps 749 mmHg 39%
    06:00 +27°C° 0 mm 1 mps 749 mmHg 39%
    07:00 +29°C° 0 mm 1 mps 749 mmHg 33%
    08:00 +31°C° 0 mm 1 mps 749 mmHg 27%
    09:00 +34°C° 0 mm 1 mps 750 mmHg 21%
    10:00 +36°C° 0 mm 2 mps 749 mmHg 19%
    11:00 +38°C° 0 mm 3 mps 749 mmHg 17%
    12:00 +40°C° 0 mm 5 mps 749 mmHg 15%
    13:00 +41°C° 0 mm 5 mps 748 mmHg 15%
    14:00 +41°C° 0 mm 5 mps 748 mmHg 15%
    15:00 +42°C° 0 mm 6 mps 748 mmHg 15%
    16:00 +40°C° 0 mm 6 mps 748 mmHg 17%
    17:00 +39°C° 0 mm 6 mps 748 mmHg 19%
    18:00 +38°C° 0 mm 6 mps 749 mmHg 21%
    19:00 +35°C° 0 mm 5 mps 749 mmHg 24%
    20:00 +33°C° 0 mm 4 mps 750 mmHg 27%
    21:00 +29°C° 0 mm 3 mps 750 mmHg 30%
    22:00 +29°C° 0 mm 2 mps 751 mmHg 31%
    23:00 +28°C° 0 mm 2 mps 751 mmHg 33%

    24 August, Thursday

    Time Temperature Precipitation Wind Pressure Humidity
    00:00 +27°C° 0 mm 1 mps 751 mmHg 34%
    01:00 +27°C° 0 mm 1 mps 751 mmHg 34%
    02:00 +27°C° 0 mm 1 mps 751 mmHg 35%
    03:00 +27°C° 0 mm 2 mps 751 mmHg 35%
    04:00 +27°C° 0 mm 2 mps 752 mmHg 35%
    05:00 +27°C° 0 mm 2 mps 752 mmHg 35%
    06:00 +27°C° 0 mm 2 mps 752 mmHg 35%
    07:00 +29°C° 0 mm 2 mps 753 mmHg 30%
    08:00 +31°C° 0 mm 2 mps 753 mmHg 25%
    09:00 +35°C° 0 mm 2 mps 753 mmHg 19%
    10:00 +36°C° 0 mm 3 mps 752 mmHg 18%
    11:00 +38°C° 0 mm 3 mps 752 mmHg 16%
    12:00 +40°C° 0 mm 4 mps 752 mmHg 14%
    13:00 +41°C° 0 mm 5 mps 752 mmHg 14%
    14:00 +41°C° 0 mm 5 mps 751 mmHg 14%
    15:00 +42°C° 0 mm 6 mps 751 mmHg 14%
    16:00 +41°C° 0 mm 6 mps 751 mmHg 15%
    17:00 +39°C° 0 mm 6 mps 752 mmHg 16%
    18:00 +38°C° 0 mm 6 mps 752 mmHg 17%
    19:00 +35°C° 0 mm 5 mps 752 mmHg 20%
    20:00 +33°C° 0 mm 4 mps 753 mmHg 22%
    21:00 +30°C° 0 mm 4 mps 754 mmHg 24%
    22:00 +29°C° 0 mm 3 mps 754 mmHg 26%
    23:00 +28°C° 0 mm 3 mps 754 mmHg 28%

    25 August, Friday

    Time Temperature Precipitation Wind Pressure Humidity
    00:00 +27°C° 0 mm 2 mps 754 mmHg 30%
    01:00 +26°C° 0 mm 2 mps 754 mmHg 31%
    02:00 +26°C° 0 mm 2 mps 754 mmHg 32%
    03:00 +25°C° 0 mm 1 mps 754 mmHg 32%
    04:00 +25°C° 0 mm 1 mps 754 mmHg 32%
    05:00 +26°C° 0 mm 1 mps 755 mmHg 32%
    06:00 +26°C° 0 mm 1 mps 755 mmHg 31%
    07:00 +28°C° 0 mm 1 mps 755 mmHg 26%
    08:00 +31°C° 0 mm 1 mps 755 mmHg 21%
    09:00 +34°C° 0 mm 2 mps 755 mmHg 17%
    10:00 +36°C° 0 mm 2 mps 754 mmHg 15%
    11:00 +37°C° 0 mm 3 mps 754 mmHg 13%
    12:00 +38°C° 0 mm 4 mps 753 mmHg 11%
    13:00 +40°C° 0 mm 4 mps 753 mmHg 11%
    14:00 +41°C° 0 mm 5 mps 753 mmHg 11%
    15:00 +41°C° 0 mm 5 mps 752 mmHg 10%
    16:00 +40°C° 0 mm 5 mps 752 mmHg 12%
    17:00 +38°C° 0 mm 4 mps 752 mmHg 13%
    18:00 +37°C° 0 mm 4 mps 752 mmHg 14%
    19:00 +34°C° 0 mm 4 mps 753 mmHg 17%
    20:00 +32°C° 0 mm 4 mps 753 mmHg 20%
    21:00 +29°C° 0 mm 4 mps 754 mmHg 23%
    22:00 +28°C° 0 mm 3 mps 754 mmHg 26%
    23:00 +27°C° 0 mm 3 mps 754 mmHg 29%

    26 August, Saturday

    Time Temperature Precipitation Wind Pressure Humidity
    00:00 +26°C° 0 mm 2 mps 754 mmHg 32%
    01:00 +26°C° 0 mm 2 mps 754 mmHg 33%
    02:00 +25°C° 0 mm 1 mps 754 mmHg 33%
    03:00 +25°C° 0 mm 1 mps 754 mmHg 34%
    04:00 +25°C° 0 mm 1 mps 754 mmHg 34%
    05:00 +25°C° 0 mm 1 mps 754 mmHg 33%
    06:00 +25°C° 0 mm 1 mps 754 mmHg 33%
    07:00 +27°C° 0 mm 1 mps 754 mmHg 29%
    08:00 +30°C° 0 mm 1 mps 754 mmHg 24%
    09:00 +32°C° 0 mm 2 mps 754 mmHg 20%
    10:00 +35°C° 0 mm 3 mps 753 mmHg 17%
    11:00 +36°C° 0 mm 3 mps 753 mmHg 15%
    12:00 +38°C° 0 mm 4 mps 753 mmHg 13%
    13:00 +38°C° 0 mm 4 mps 752 mmHg 12%
    14:00 +40°C° 0 mm 5 mps 752 mmHg 12%
    15:00 +40°C° 0 mm 5 mps 751 mmHg 12%
    16:00 +39°C° 0 mm 5 mps 751 mmHg 13%
    17:00 +37°C° 0 mm 4 mps 751 mmHg 15%
    18:00 +36°C° 0 mm 4 mps 752 mmHg 16%
    19:00 +34°C° 0 mm 4 mps 752 mmHg 20%
    20:00 +32°C° 0 mm 5 mps 752 mmHg 25%
    21:00 +29°C° 0 mm 5 mps 753 mmHg 29%
    22:00 +29°C° 0 mm 4 mps 753 mmHg 31%
    23:00 +28°C° 0 mm 4 mps 753 mmHg 34%
    Show more